Retour au catalogue

NIMBUS 2 DEB

ActifLEO
NORAD 26816·DEBRIS·🇺🇸 United States

Lancé May 15, 1966 depuis Vandenberg Space Force Base

Loading…

Prochains Passages (prochaines 24 heures)

TLE

FraisSource: Space-Track

Époque: Sep 14, 2026, 09:14 UTC

1 26816U 66040L   26257.38489844  .00002291  00000-0  31706-2 0  9992
2 26816 100.3346 208.6150 0054686 274.5109 238.1812 13.58712329256022

Suivez NIMBUS 2 DEB en temps réel avec AllMySat

Download on the App Store